This demonstration page uses our WeatherBlox Daily Observations layout. Learn more.

Left ArrowRight Arrow

Hourly Observations for May 22, 2017

Temp ( °F °C ) Dew Point ( °F °C ) Humidity (%) Winds ( mph kmh ) Pressure ( in mb ) Visibility ( mi km ) Precip ( " mm )
12:53 am 00:53 Mostly Cloudy 70 21.1 70 21.1 100 100 Calm 30.06 1018 9 14 0.00 0.00
1:53 am 01:53 Clear 70 21.1 70 21.1 100 100 Calm 30.04 1017 10 16 0.00 0.00
2:53 am 02:53 Clear 69 20.6 69 20.6 100 100 Calm 30.04 1017 10 16 0.00 0.00
3:53 am 03:53 Clear 68 20 68 20 100 100 NE 3 6 30.03 1017 10 16 0.00 0.00
4:53 am 04:53 Clear 68 20 68 20 100 100 Calm 30.03 1017 10 16 0.00 0.00
5:53 am 05:53 Mostly Cloudy 67 19.4 67 19.4 100 100 Calm 30.03 1017 10 16 0.00 0.00
6:53 am 06:53 Mostly Sunny 68 20 68 20 100 100 Calm 30.04 1017 10 16 0.00 0.00
7:53 am 07:53 Sunny 71 21.7 70 21.1 96 96 Calm 30.03 1017 10 16 0.00 0.00
8:53 am 08:53 Sunny 75 23.9 71 21.7 88 88 N 5 7 30.05 1018 10 16 0.00 0.00
9:53 am 09:53 Partly Cloudy 76 24.4 70 21.1 82 82 Calm 30.04 1017 10 16 0.00 0.00
10:41 am 10:41 Mostly Cloudy 77 25 70 21.1 79 79 NNW 5 7 30.03 1017 10 16 0.00 0.00
10:53 am 10:53 Cloudy 78 25.6 70 21.1 76 76 VRB 5 7 30.03 1017 10 16 0.00 0.00
11:02 am 11:02 Mostly Cloudy 78 25.6 70 21.1 76 76 WNW 5 7 30.03 1017 10 16 0.00 0.00
11:53 am 11:53 Mostly Cloudy 80 26.7 69 20.6 69 69 N 3 6 30.02 1017 10 16 0.00 0.00
12:53 pm 12:53 Mostly Cloudy 76 24.4 69 20.6 79 79 SSE 8 13 30.00 1016 10 16 0.00 0.00
1:15 pm 13:15 Cloudy with Nearby Thunderstorms 72 22.2 70 21.1 94 94 SSE 8 13 30.00 1016 8 13 0.01 0.25
1:18 pm 13:18 Cloudy with Thunderstorms 72 22.2 70 21.1 94 94 SSE 10 17 30.00 1016 9 14 0.01 0.25
1:34 pm 13:34 Cloudy with Thunderstorms 70 21.1 68 20 93 93 E 8 13 30.00 1016 7 11 0.02 0.51
1:53 pm 13:53 Cloudy with Thunderstorms 69 20.6 66 18.9 90 90 Calm 30.00 1016 10 16 0.02 0.51
2:03 pm 14:03 Cloudy 69 20.6 66 18.9 90 90 E 5 7 30.03 1017 10 16 0.00 0.00
2:53 pm 14:53 Cloudy with Light Rain 71 21.7 70 21.1 96 96 SW 5 7 30.00 1016 8 13 0.01 0.25
3:49 pm 15:49 Cloudy with Light Rain 70 21 70 21 100 100 WSW 5 7 29.97 1015 10 16 0.02 0.51
3:53 pm 15:53 Cloudy with Light Rain 70 21.1 69 20.6 97 97 W 6 9 29.99 1016 10 16 0.02 0.51
4:53 pm 16:53 Mostly Cloudy with Light Rain 69 20.6 68 20 96 96 Calm 29.97 1015 8 13 0.07 1.78
5:53 pm 17:53 Cloudy with Light Rain 69 20.6 69 20.6 100 100 VRB 3 6 29.96 1014 9 14 0.04 1.02
6:53 pm 18:53 Mostly Cloudy 69 20.6 68 20 96 96 Calm 29.95 1014 10 16 0.00 0.03
7:53 pm 19:53 Sunny 69 20.6 69 20.6 100 100 Calm 29.93 1014 10 16 0.00 0.00
8:53 pm 20:53 Mostly Cloudy 69 20.6 69 20.6 100 100 Calm 29.93 1014 10 16 0.00 0.00
9:26 pm 21:26 Mostly Cloudy 69 20.6 69 20.6 100 100 Calm 29.94 1014 10 16 0.00 0.00
9:53 pm 21:53 Mostly Cloudy with Light Rain 69 20.6 69 20.6 100 100 SE 3 6 29.93 1014 10 16 0.00 0.03
10:53 pm 22:53 Cloudy with Light Rain 69 20.6 69 20.6 100 100 Calm 29.94 1014 5 8 0.03 0.76
11:53 pm 23:53 Mostly Cloudy with Light Rain 68 20 68 20 100 100 Calm 29.92 1013 6 10 0.02 0.51

Powered by AerisWeather